Location: Baller�as
(41.9020°N, 0.1554°W)
Time: 11:44:50
(UTC+00:00)

FALCON 9 DEB - Pass Details

Date: 10 August 2020
Orbit: 427 x 441 km, 53.0° (Epoch: 21 September)

Event Time Altitude Azimuth Distance (km) Brightness Sun altitude
Rises 19:41:45 0° 218° (SW) 2,411 7.0 -6.7°
Reaches altitude 10° 19:43:54 10° 212° (SSW) 1,547 6.0 -7.0°
Maximum altitude 19:47:15 48° 137° (SE) 586 3.4 -7.6°
Drops below altitude 10° 19:50:39 10° 62° (ENE) 1,559 5.6 -8.1°
Sets 19:52:49 0° 57° (ENE) 2,432 6.6 -8.5°
